{"data":{"norad_id":85100,"intl_designator":"","name":"UNKNOWN","alt_names":[],"object_type":"UNKNOWN","status":"UNKNOWN","operator":null,"country":null,"launch_date":null,"launch_site_code":null,"launch_vehicle":null,"mission":null,"orbit_class":"UNKNOWN","rcs_meters":null,"size_class":null,"mass_kg":null,"dimensions":null,"purposes":[],"wikipedia_slug":null,"has_3d_model":false,"image_url":null,"decayed_at":null,"tle_current":{"epoch":"2026-09-17T05:43:53.756832Z","epoch_age_seconds":296177,"freshness":"STALE","line1":"1 85100U          26260.23881663  .00000200  00000+0  70552-4 0  9991","line2":"2 85100  74.0441  67.8166 0013129 229.8449 304.3170 14.40903658673457","mean_motion":14.40903658,"eccentricity":0.0013129,"inclination_deg":74.0441,"raan_deg":67.8166,"arg_perigee_deg":229.8449,"mean_anomaly_deg":304.317,"bstar":7.0552e-5,"rev_number":67345,"period_min":99.937285328205,"perigee_km":746.14856122837,"apogee_km":764.8801028961,"semimajor_km":7133.6513320622,"source":"CELESTRAK","updated_at":"2026-09-20T09:00:32.446323Z"}}}